TimeEDT,TemperatureF,Dew PointF,Humidity,Sea Level PressureIn,VisibilityMPH,Wind Direction,Wind SpeedMPH,Gust SpeedMPH,PrecipitationIn,Events,Conditions,WindDirDegrees,DateUTC
12:54 AM,36.0,28.0,73,29.92,10.0,East,4.6,-,N/A,,Overcast,80,2013-03-28 04:54:00
1:54 AM,36.0,28.0,73,29.92,10.0,Calm,Calm,-,N/A,,Overcast,0,2013-03-28 05:54:00
2:54 AM,35.1,28.9,78,29.92,10.0,Calm,Calm,-,0.00,Rain,Light Rain,0,2013-03-28 06:54:00
3:20 AM,33.8,28.4,81,29.91,10.0,Calm,Calm,-,0.00,Rain,Light Rain,0,2013-03-28 07:20:00
3:32 AM,33.8,30.2,87,29.91,10.0,Calm,Calm,-,0.00,Rain,Light Rain,0,2013-03-28 07:32:00
3:54 AM,34.0,30.0,85,29.93,10.0,Calm,Calm,-,0.00,,Overcast,0,2013-03-28 07:54:00
4:54 AM,33.1,30.9,92,29.94,10.0,Calm,Calm,-,0.00,,Overcast,0,2013-03-28 08:54:00
5:54 AM,33.1,30.0,89,29.95,6.0,Calm,Calm,-,0.00,Snow,Light Snow,0,2013-03-28 09:54:00
6:54 AM,33.1,30.9,92,29.96,10.0,Calm,Calm,-,0.00,,Overcast,0,2013-03-28 10:54:00
7:54 AM,33.1,30.9,92,29.98,8.0,Calm,Calm,-,N/A,,Overcast,0,2013-03-28 11:54:00
8:09 AM,33.8,30.2,87,29.96,9.0,Calm,Calm,-,0.01,,Overcast,0,2013-03-28 12:09:00
8:17 AM,33.8,30.2,87,29.97,10.0,Calm,Calm,-,0.01,,Overcast,0,2013-03-28 12:17:00
8:30 AM,33.8,30.2,87,29.97,10.0,Calm,Calm,-,0.01,,Overcast,0,2013-03-28 12:30:00
8:54 AM,35.1,32.0,89,29.99,10.0,Calm,Calm,-,0.01,,Overcast,0,2013-03-28 12:54:00
9:54 AM,37.9,30.9,76,29.99,10.0,Calm,Calm,-,N/A,,Overcast,0,2013-03-28 13:54:00
10:16 AM,39.2,30.2,70,29.98,10.0,Calm,Calm,-,N/A,,Overcast,0,2013-03-28 14:16:00
10:54 AM,41.0,28.0,60,30.00,10.0,North,5.8,-,N/A,,Overcast,10,2013-03-28 14:54:00
11:54 AM,43.0,28.0,56,29.98,10.0,WSW,6.9,-,N/A,,Overcast,250,2013-03-28 15:54:00
12:54 PM,45.0,26.1,48,29.97,10.0,WNW,3.5,-,N/A,,Overcast,300,2013-03-28 16:54:00
1:54 PM,46.0,26.1,46,29.97,10.0,NNW,5.8,-,N/A,,Overcast,330,2013-03-28 17:54:00
2:54 PM,45.0,28.0,52,29.96,10.0,WNW,13.8,19.6,N/A,,Overcast,290,2013-03-28 18:54:00
3:54 PM,45.0,27.0,49,29.97,10.0,NW,9.2,17.3,N/A,,Overcast,310,2013-03-28 19:54:00
4:54 PM,44.1,27.0,51,29.98,10.0,WNW,5.8,-,N/A,,Overcast,300,2013-03-28 20:54:00
5:54 PM,45.0,26.1,48,29.99,10.0,WNW,6.9,-,N/A,,Overcast,290,2013-03-28 21:54:00
6:54 PM,45.0,25.0,46,30.01,10.0,Calm,Calm,-,N/A,,Overcast,0,2013-03-28 22:54:00
7:54 PM,39.0,28.0,65,30.03,10.0,Calm,Calm,-,N/A,,Overcast,0,2013-03-28 23:54:00
8:54 PM,35.1,27.0,72,30.05,10.0,Calm,Calm,-,N/A,,Scattered Clouds,0,2013-03-29 00:54:00
9:54 PM,32.0,26.1,79,30.06,10.0,Calm,Calm,-,N/A,,Clear,0,2013-03-29 01:54:00
10:54 PM,32.0,26.1,79,30.06,10.0,Calm,Calm,-,N/A,,Overcast,0,2013-03-29 02:54:00
11:54 PM,30.9,26.1,82,30.06,10.0,Calm,Calm,-,N/A,,Overcast,0,2013-03-29 03:54:00